Regional Weather Roundup
Issued by NWS

Home | Current Version | Previous Version | Text Only | Print | Product List | Glossary On
Versions: 1 2 3 4 5 6 7 8 9 10 11 12 13 14 15 16 17 18 19 20 21 22 23 24 25 26 27 28 29 30 31 32 33 34 35 36 37 38 39 40 41 42 43 44 45 46 47 48 49 50
000
ASUS46 KPQR 030110
RWROR

OREGON REGIONAL WEATHER ROUNDUP
NATIONAL WEATHER SERVICE PORTLAND OR
600 PM PDT MON MAY 02 2016

NOTE: "FAIR" INDICATES FEW OR NO CLOUDS BELOW 12,000 FEET WITH
NO SIGNIFICANT WEATHER AND/OR OBSTRUCTIONS TO VISIBILITY.

ORZ001>013-030200-
NORTHWEST OREGON


CITY           SKY/WX    TMP DP  RH WIND       PRES   REMARKS
ASTORIA        FAIR      59  55  87 SW10      29.96F FOG
NEWPORT        PTSUNNY   59  54  82 SW14      30.03S
PORTLAND       PTSUNNY   86  40  19 NW7       29.87S
VANCOUVER WA   FAIR      83  47  28 W7        29.86F
SCAPPOOSE      FAIR      83  49  30 NW8       29.86F
HILLSBORO      FAIR      81  48  31 NW14      29.88S
AURORA         FAIR      78  46  32 SW9       29.90S
MCMINNVILLE    FAIR      75  43  31 W13       29.91R
SALEM          FAIR      77  44  30 W13       29.90S
CORVALLIS        N/A     73  45  35 NW15      29.94S
EUGENE         PTSUNNY   73  46  38 W9        29.93R
$$

ORZ021-028-030200-
SOUTHWEST OREGON


CITY           SKY/WX    TMP DP  RH WIND       PRES   REMARKS
NORTH BEND     PTSUNNY   57  52  82 W10       30.04S
ROSEBURG       PTSUNNY   69  53  56 SE3       29.95R
SEXTON SUMMIT  CLOUDY    62  40  44 VRB3      30.04R
MEDFORD        FAIR      78  43  28 NW10      29.92R
$$

ORZ014>016-041-030200-
COLUMBIA GORGE


CITY           SKY/WX    TMP DP  RH WIND       PRES   REMARKS
TROUTDALE      FAIR      85  43  22 VRB5      29.86S
THE DALLES     FAIR      89  32  13 E10       29.87F
$$

ORZ029>031-041-044-049-050-061>064-502-503-505>511-030200-
EASTERN OREGON


CITY           SKY/WX    TMP DP  RH WIND       PRES   REMARKS
REDMOND        FAIR      76  29  17 E8        29.96F
BEND           NOT AVBL
PRINEVILLE     FAIR      73  28  19 SE13G18   29.99S
KLAMATH FALLS  PTSUNNY   66  38  35 S10       30.05S
LAKEVIEW       FAIR      64  34  32 S5        30.11S
HERMISTON      FAIR      86  40  19 NE13      29.91F
PENDLETON      FAIR      81  43  26 NE15      29.94F
JOHN DAY       PTSUNNY   74  29  19 S8        30.06F
MEACHAM        FAIR      72  28  19 CALM      30.07F
LA GRANDE      FAIR      75  32  20 S16       30.03F
BAKER CITY     FAIR      71  24  17 SE14      30.09S
BURNS          FAIR      70  22  16 E9        30.08F
ROME             N/A     70  26  19 SE7       30.07F
ONTARIO        FAIR      77  29  17 E6        30.06F
$$



USA.gov is the U.S. government's official web portal to all federal, state and local government web resources and services.